Year,Month,Day,Hour,Minute,Value (Times are PST for temperature in C)
2016,06,27,00,00,14.90
2016,06,27,00,01,14.80
2016,06,27,00,02,14.80
2016,06,27,00,03,14.80
2016,06,27,00,04,14.80
2016,06,27,00,05,14.80
2016,06,27,00,06,14.80
2016,06,27,00,07,14.80
2016,06,27,00,08,14.80
2016,06,27,00,09,14.80
2016,06,27,00,10,14.80
2016,06,27,00,11,14.80
2016,06,27,00,12,14.70
2016,06,27,00,13,14.70
2016,06,27,00,14,14.70
2016,06,27,00,15,14.60
2016,06,27,00,16,14.60
2016,06,27,00,17,14.60
2016,06,27,00,18,14.60
2016,06,27,00,19,14.60
2016,06,27,00,20,14.70
2016,06,27,00,21,14.70
2016,06,27,00,22,14.70
2016,06,27,00,23,14.70
2016,06,27,00,24,14.80
2016,06,27,00,25,14.80
2016,06,27,00,26,14.70
2016,06,27,00,27,14.70
2016,06,27,00,28,14.70
2016,06,27,00,29,14.60
2016,06,27,00,30,14.60
2016,06,27,00,31,14.60
2016,06,27,00,32,14.60
2016,06,27,00,33,14.60
2016,06,27,00,34,14.50
2016,06,27,00,35,14.50
2016,06,27,00,36,14.50
2016,06,27,00,37,14.60
2016,06,27,00,38,14.60
2016,06,27,00,39,14.60
2016,06,27,00,40,14.60
2016,06,27,00,41,14.60
2016,06,27,00,42,14.60
2016,06,27,00,43,14.60
2016,06,27,00,44,14.60
2016,06,27,00,45,14.60
2016,06,27,00,46,14.60
2016,06,27,00,47,14.60
2016,06,27,00,48,14.70
2016,06,27,00,49,14.70
2016,06,27,00,50,14.70
2016,06,27,00,51,14.70
2016,06,27,00,52,14.70
2016,06,27,00,53,14.70
2016,06,27,00,54,14.70
2016,06,27,00,55,14.70
2016,06,27,00,56,14.70
2016,06,27,00,57,14.70
2016,06,27,00,58,14.70
2016,06,27,00,59,14.70
2016,06,27,01,00,14.60
2016,06,27,01,01,14.60
2016,06,27,01,02,14.60
2016,06,27,01,03,14.60
2016,06,27,01,04,14.60
2016,06,27,01,05,14.50
2016,06,27,01,06,14.50
2016,06,27,01,07,14.50
2016,06,27,01,08,14.50
2016,06,27,01,09,14.50
2016,06,27,01,10,14.50
2016,06,27,01,11,14.50
2016,06,27,01,12,14.50
2016,06,27,01,13,14.50
2016,06,27,01,14,14.50
2016,06,27,01,15,14.40
2016,06,27,01,16,14.40
2016,06,27,01,17,14.40
2016,06,27,01,18,14.30
2016,06,27,01,19,14.30
2016,06,27,01,20,14.30
2016,06,27,01,21,14.20
2016,06,27,01,22,14.20
2016,06,27,01,23,14.20
2016,06,27,01,24,14.20
2016,06,27,01,25,14.20
2016,06,27,01,26,14.20
2016,06,27,01,27,14.20
2016,06,27,01,28,14.20
2016,06,27,01,29,14.20
2016,06,27,01,30,14.20
2016,06,27,01,31,14.10
2016,06,27,01,32,14.10
2016,06,27,01,33,14.10
2016,06,27,01,34,14.00
2016,06,27,01,35,14.00
2016,06,27,01,36,14.00
2016,06,27,01,37,14.00
2016,06,27,01,38,14.00
2016,06,27,01,39,13.90
2016,06,27,01,40,13.90
2016,06,27,01,41,13.90
2016,06,27,01,42,13.90
2016,06,27,01,43,13.90
2016,06,27,01,44,13.90
2016,06,27,01,45,13.90
2016,06,27,01,46,13.80
2016,06,27,01,47,13.80
2016,06,27,01,48,13.80
2016,06,27,01,49,13.80
2016,06,27,01,50,13.70
2016,06,27,01,51,13.70
2016,06,27,01,52,13.70
2016,06,27,01,53,13.70
2016,06,27,01,54,13.70
2016,06,27,01,55,13.70
2016,06,27,01,56,13.60
2016,06,27,01,57,13.60
2016,06,27,01,58,13.60
2016,06,27,01,59,13.60
2016,06,27,02,00,13.60
2016,06,27,02,01,13.60
2016,06,27,02,02,13.60
2016,06,27,02,03,13.50
2016,06,27,02,04,13.50
2016,06,27,02,05,13.50
2016,06,27,02,06,13.50
2016,06,27,02,07,13.50
2016,06,27,02,08,13.40
2016,06,27,02,09,13.40
2016,06,27,02,10,13.40
2016,06,27,02,11,13.40
2016,06,27,02,12,13.40
2016,06,27,02,13,13.40
2016,06,27,02,14,13.40
2016,06,27,02,15,13.40
2016,06,27,02,16,13.40
2016,06,27,02,17,13.40
2016,06,27,02,18,13.40
2016,06,27,02,19,13.40
2016,06,27,02,20,13.40
2016,06,27,02,21,13.40
2016,06,27,02,22,13.40
2016,06,27,02,23,13.40
2016,06,27,02,24,13.30
2016,06,27,02,25,13.30
2016,06,27,02,26,13.30
2016,06,27,02,27,13.30
2016,06,27,02,28,13.30
2016,06,27,02,29,13.30
2016,06,27,02,30,13.30
2016,06,27,02,31,13.30
2016,06,27,02,32,13.30
2016,06,27,02,33,13.30
2016,06,27,02,34,13.30
2016,06,27,02,35,13.30
2016,06,27,02,36,13.30
2016,06,27,02,37,13.30
2016,06,27,02,38,13.30
2016,06,27,02,39,13.30
2016,06,27,02,40,13.30
2016,06,27,02,41,13.30
2016,06,27,02,42,13.30
2016,06,27,02,43,13.30
2016,06,27,02,44,13.20
2016,06,27,02,45,13.20
2016,06,27,02,46,13.20
2016,06,27,02,47,13.20
2016,06,27,02,48,13.20
2016,06,27,02,49,13.10
2016,06,27,02,50,13.10
2016,06,27,02,51,13.10
2016,06,27,02,52,13.10
2016,06,27,02,53,13.10
2016,06,27,02,54,13.10
2016,06,27,02,55,13.00
2016,06,27,02,56,13.00
2016,06,27,02,57,13.00
2016,06,27,02,58,12.90
2016,06,27,02,59,12.90
2016,06,27,03,00,12.90
2016,06,27,03,01,12.90
2016,06,27,03,02,12.90
2016,06,27,03,03,12.90
2016,06,27,03,04,12.90
2016,06,27,03,05,13.00
2016,06,27,03,06,13.00
2016,06,27,03,07,13.10
2016,06,27,03,08,13.10
2016,06,27,03,09,13.10
2016,06,27,03,10,13.10
2016,06,27,03,11,13.20
2016,06,27,03,12,13.20
2016,06,27,03,13,13.20
2016,06,27,03,14,13.30
2016,06,27,03,15,13.30
2016,06,27,03,16,13.30
2016,06,27,03,17,13.30
2016,06,27,03,18,13.30
2016,06,27,03,19,13.30
2016,06,27,03,20,13.40
2016,06,27,03,21,13.40
2016,06,27,03,22,13.50
2016,06,27,03,23,13.50
2016,06,27,03,24,13.60
2016,06,27,03,25,13.60
2016,06,27,03,26,13.70
2016,06,27,03,27,13.70
2016,06,27,03,28,13.70
2016,06,27,03,29,13.70
2016,06,27,03,30,13.70
2016,06,27,03,31,13.80
2016,06,27,03,32,13.80
2016,06,27,03,33,13.80
2016,06,27,03,34,13.90
2016,06,27,03,35,13.90
2016,06,27,03,36,13.90
2016,06,27,03,37,13.90
2016,06,27,03,38,14.00
2016,06,27,03,39,14.00
2016,06,27,03,40,14.00
2016,06,27,03,41,14.00
2016,06,27,03,42,14.00
2016,06,27,03,43,14.00
2016,06,27,03,44,14.00
2016,06,27,03,45,14.00
2016,06,27,03,46,14.00
2016,06,27,03,47,14.00
2016,06,27,03,48,14.00
2016,06,27,03,49,14.00
2016,06,27,03,50,14.10
2016,06,27,03,51,14.10
2016,06,27,03,52,14.10
2016,06,27,03,53,14.10
2016,06,27,03,54,14.10
2016,06,27,03,55,14.00
2016,06,27,03,56,14.00
2016,06,27,03,57,14.00
2016,06,27,03,58,14.00
2016,06,27,03,59,14.00
2016,06,27,04,00,14.00
2016,06,27,04,01,14.00
2016,06,27,04,02,14.00
2016,06,27,04,03,14.00
2016,06,27,04,04,14.00
2016,06,27,04,05,14.00
2016,06,27,04,06,14.00
2016,06,27,04,07,14.10
2016,06,27,04,08,14.10
2016,06,27,04,09,14.10
2016,06,27,04,10,14.10
2016,06,27,04,11,14.10
2016,06,27,04,12,14.10
2016,06,27,04,13,14.00
2016,06,27,04,14,14.00
2016,06,27,04,15,14.00
2016,06,27,04,16,14.00
2016,06,27,04,17,14.00
2016,06,27,04,18,14.00
2016,06,27,04,19,14.00
2016,06,27,04,20,14.00
2016,06,27,04,21,13.90
2016,06,27,04,22,13.90
2016,06,27,04,23,13.90
2016,06,27,04,24,13.90
2016,06,27,04,25,13.80
2016,06,27,04,26,13.80
2016,06,27,04,27,13.80
2016,06,27,04,28,13.80
2016,06,27,04,29,13.80
2016,06,27,04,30,13.80
2016,06,27,04,31,13.70
2016,06,27,04,32,13.70
2016,06,27,04,33,13.70
2016,06,27,04,34,13.70
2016,06,27,04,35,13.70
2016,06,27,04,36,13.70
2016,06,27,04,37,13.70
2016,06,27,04,38,13.70
2016,06,27,04,39,13.70
2016,06,27,04,40,13.70
2016,06,27,04,41,13.70
2016,06,27,04,42,13.70
2016,06,27,04,43,13.60
2016,06,27,04,44,13.60
2016,06,27,04,45,13.60
2016,06,27,04,46,13.60
2016,06,27,04,47,13.60
2016,06,27,04,48,13.60
2016,06,27,04,49,13.50
2016,06,27,04,50,13.50
2016,06,27,04,51,13.50
2016,06,27,04,52,13.50
2016,06,27,04,53,13.50
2016,06,27,04,54,13.50
2016,06,27,04,55,13.50
2016,06,27,04,56,13.60
2016,06,27,04,57,13.60
2016,06,27,04,58,13.60
2016,06,27,04,59,13.60
2016,06,27,05,00,13.60
2016,06,27,05,01,13.50
2016,06,27,05,02,13.50
2016,06,27,05,03,13.50
2016,06,27,05,04,13.50
2016,06,27,05,05,13.50
2016,06,27,05,06,13.40
2016,06,27,05,07,13.40
2016,06,27,05,08,13.40
2016,06,27,05,09,13.40
2016,06,27,05,10,13.40
2016,06,27,05,11,13.30
2016,06,27,05,12,13.30
2016,06,27,05,13,13.30
2016,06,27,05,14,13.30
2016,06,27,05,15,13.30
2016,06,27,05,16,13.30
2016,06,27,05,17,13.30
2016,06,27,05,18,13.30
2016,06,27,05,19,13.30
2016,06,27,05,20,13.30
2016,06,27,05,21,13.30
2016,06,27,05,22,13.30
2016,06,27,05,23,13.30
2016,06,27,05,24,13.30
2016,06,27,05,25,13.30
2016,06,27,05,26,13.30
2016,06,27,05,27,13.30
2016,06,27,05,28,13.30
2016,06,27,05,29,13.30
2016,06,27,05,30,13.30
2016,06,27,05,31,13.30
2016,06,27,05,32,13.30
2016,06,27,05,33,13.30
2016,06,27,05,34,13.30
2016,06,27,05,35,13.30
2016,06,27,05,36,13.30
2016,06,27,05,37,13.30
2016,06,27,05,38,13.30
2016,06,27,05,39,13.30
2016,06,27,05,40,13.30
2016,06,27,05,41,13.30
2016,06,27,05,42,13.30
2016,06,27,05,43,13.30
2016,06,27,05,44,13.30
2016,06,27,05,45,13.30
2016,06,27,05,46,13.30
2016,06,27,05,47,13.30
2016,06,27,05,48,13.30
2016,06,27,05,49,13.30
2016,06,27,05,50,13.30
2016,06,27,05,51,13.30
2016,06,27,05,52,13.30
2016,06,27,05,53,13.30
2016,06,27,05,54,13.30
2016,06,27,05,55,13.30
2016,06,27,05,56,13.40
2016,06,27,05,57,13.40
2016,06,27,05,58,13.40
2016,06,27,05,59,13.50
2016,06,27,06,00,13.50
2016,06,27,06,01,13.50
2016,06,27,06,02,13.50
2016,06,27,06,03,13.60
2016,06,27,06,04,13.60
2016,06,27,06,05,13.60
2016,06,27,06,06,13.70
2016,06,27,06,07,13.70
2016,06,27,06,08,13.70
2016,06,27,06,09,13.80
2016,06,27,06,10,13.80
2016,06,27,06,11,13.90
2016,06,27,06,12,13.90
2016,06,27,06,13,14.00
2016,06,27,06,14,14.00
2016,06,27,06,15,14.10
2016,06,27,06,16,14.20
2016,06,27,06,17,14.20
2016,06,27,06,18,14.20
2016,06,27,06,19,14.30
2016,06,27,06,20,14.40
2016,06,27,06,21,14.40
2016,06,27,06,22,14.50
2016,06,27,06,23,14.60
2016,06,27,06,24,14.60
2016,06,27,06,25,14.70
2016,06,27,06,26,14.70
2016,06,27,06,27,14.80
2016,06,27,06,28,14.80
2016,06,27,06,29,14.80
2016,06,27,06,30,14.90
2016,06,27,06,31,14.90
2016,06,27,06,32,15.00
2016,06,27,06,33,15.10
2016,06,27,06,34,15.10
2016,06,27,06,35,15.20
2016,06,27,06,36,15.20
2016,06,27,06,37,15.30
2016,06,27,06,38,15.30
2016,06,27,06,39,15.30
2016,06,27,06,40,15.40
2016,06,27,06,41,15.40
2016,06,27,06,42,15.50
2016,06,27,06,43,15.50
2016,06,27,06,44,15.60
2016,06,27,06,45,15.60
2016,06,27,06,46,15.70
2016,06,27,06,47,15.80
2016,06,27,06,48,15.80
2016,06,27,06,49,15.80
2016,06,27,06,50,15.80
2016,06,27,06,51,15.90
2016,06,27,06,52,15.90
2016,06,27,06,53,16.00
2016,06,27,06,54,16.10
2016,06,27,06,55,16.10
2016,06,27,06,56,16.10
2016,06,27,06,57,16.20
2016,06,27,06,58,16.20
2016,06,27,06,59,16.20
2016,06,27,07,00,16.30
2016,06,27,07,01,16.30
2016,06,27,07,02,16.40
2016,06,27,07,03,16.40
2016,06,27,07,04,16.40
2016,06,27,07,05,16.40
2016,06,27,07,06,16.50
2016,06,27,07,07,16.60
2016,06,27,07,08,16.60
2016,06,27,07,09,16.60
2016,06,27,07,10,16.60
2016,06,27,07,11,16.60
2016,06,27,07,12,16.60
2016,06,27,07,13,16.60
2016,06,27,07,14,16.60
2016,06,27,07,15,16.60
2016,06,27,07,16,16.50
2016,06,27,07,17,16.40
2016,06,27,07,18,16.40
2016,06,27,07,19,16.40
2016,06,27,07,20,16.40
2016,06,27,07,21,16.40
2016,06,27,07,22,16.40
2016,06,27,07,23,16.30
2016,06,27,07,24,16.30
2016,06,27,07,25,16.30
2016,06,27,07,26,16.30
2016,06,27,07,27,16.30
2016,06,27,07,28,16.20
2016,06,27,07,29,16.20
2016,06,27,07,30,16.20
2016,06,27,07,31,16.20
2016,06,27,07,32,16.20
2016,06,27,07,33,16.20
2016,06,27,07,34,16.20
2016,06,27,07,35,16.20
2016,06,27,07,36,16.20
2016,06,27,07,37,16.30
2016,06,27,07,38,16.30
2016,06,27,07,39,16.30
2016,06,27,07,40,16.30
2016,06,27,07,41,16.40
2016,06,27,07,42,16.40
2016,06,27,07,43,16.40
2016,06,27,07,44,16.40
2016,06,27,07,45,16.40
2016,06,27,07,46,16.40
2016,06,27,07,47,16.50
2016,06,27,07,48,16.60
2016,06,27,07,49,16.60
2016,06,27,07,50,16.70
2016,06,27,07,51,16.70
2016,06,27,07,52,16.80
2016,06,27,07,53,16.80
2016,06,27,07,54,16.90
2016,06,27,07,55,17.00
2016,06,27,07,56,17.00
2016,06,27,07,57,17.10
2016,06,27,07,58,17.20
2016,06,27,07,59,17.20
2016,06,27,08,00,17.30
2016,06,27,08,01,17.40
2016,06,27,08,02,17.50
2016,06,27,08,03,17.60
2016,06,27,08,04,17.70
2016,06,27,08,05,17.80
2016,06,27,08,06,17.80
2016,06,27,08,07,17.90
2016,06,27,08,08,17.90
2016,06,27,08,09,18.10
2016,06,27,08,10,18.10
2016,06,27,08,11,18.20
2016,06,27,08,12,18.20
2016,06,27,08,13,18.30
2016,06,27,08,14,18.30
2016,06,27,08,15,18.30
2016,06,27,08,16,18.30
2016,06,27,08,17,18.40
2016,06,27,08,18,18.40
2016,06,27,08,19,18.50
2016,06,27,08,20,18.50
2016,06,27,08,21,18.50
2016,06,27,08,22,18.50
2016,06,27,08,23,18.60
2016,06,27,08,24,18.60
2016,06,27,08,25,18.70
2016,06,27,08,26,18.80
2016,06,27,08,27,18.80
2016,06,27,08,28,18.90
2016,06,27,08,29,18.90
2016,06,27,08,30,19.10
2016,06,27,08,31,19.10
2016,06,27,08,32,19.10
2016,06,27,08,33,19.20
2016,06,27,08,34,19.20
2016,06,27,08,35,19.20
2016,06,27,08,36,19.30
2016,06,27,08,37,19.30
2016,06,27,08,38,19.50
2016,06,27,08,39,19.60
2016,06,27,08,40,19.70
2016,06,27,08,41,19.80
2016,06,27,08,42,19.90
2016,06,27,08,43,19.90
2016,06,27,08,44,19.90
2016,06,27,08,45,19.90
2016,06,27,08,46,19.80
2016,06,27,08,47,19.60
2016,06,27,08,48,19.40
2016,06,27,08,49,19.30
2016,06,27,08,50,19.20
2016,06,27,08,51,19.30
2016,06,27,08,52,19.30
2016,06,27,08,53,19.40
2016,06,27,08,54,19.40
2016,06,27,08,55,19.40
2016,06,27,08,56,19.40
2016,06,27,08,57,19.40
2016,06,27,08,58,19.50
2016,06,27,08,59,19.60
2016,06,27,09,00,19.60
2016,06,27,09,01,19.60
2016,06,27,09,02,19.60
2016,06,27,09,03,19.50
2016,06,27,09,04,19.50
2016,06,27,09,05,19.40
2016,06,27,09,06,19.40
2016,06,27,09,07,19.40
2016,06,27,09,08,19.30
2016,06,27,09,09,19.30
2016,06,27,09,10,19.20
2016,06,27,09,11,19.20
2016,06,27,09,12,19.20
2016,06,27,09,13,19.30
2016,06,27,09,14,19.20
2016,06,27,09,15,19.20
2016,06,27,09,16,19.30
2016,06,27,09,17,19.30
2016,06,27,09,18,19.30
2016,06,27,09,19,19.40
2016,06,27,09,20,19.40
2016,06,27,09,21,19.40
2016,06,27,09,22,19.50
2016,06,27,09,23,19.50
2016,06,27,09,24,19.50
2016,06,27,09,25,19.60
2016,06,27,09,26,19.60
2016,06,27,09,27,19.60
2016,06,27,09,28,19.60
2016,06,27,09,29,19.60
2016,06,27,09,30,19.50
2016,06,27,09,31,19.50
2016,06,27,09,32,19.40
2016,06,27,09,33,19.30
2016,06,27,09,34,19.20
2016,06,27,09,35,19.10
2016,06,27,09,36,19.00
2016,06,27,09,37,18.90
2016,06,27,09,38,18.80
2016,06,27,09,39,18.80
2016,06,27,09,40,18.80
2016,06,27,09,41,18.80
2016,06,27,09,42,18.90
2016,06,27,09,43,18.90
2016,06,27,09,44,18.90
2016,06,27,09,45,19.00
2016,06,27,09,46,19.10
2016,06,27,09,47,19.10
2016,06,27,09,48,19.10
2016,06,27,09,49,19.10
2016,06,27,09,50,19.00
2016,06,27,09,51,18.90
2016,06,27,09,52,18.90
2016,06,27,09,53,18.90
2016,06,27,09,54,18.90
2016,06,27,09,55,19.00
2016,06,27,09,56,19.10
2016,06,27,09,57,19.10
2016,06,27,09,58,19.10
2016,06,27,09,59,19.10
2016,06,27,10,00,19.20
2016,06,27,10,01,19.20
2016,06,27,10,02,19.20
2016,06,27,10,03,19.30
2016,06,27,10,04,19.30
2016,06,27,10,05,19.40
2016,06,27,10,06,19.40
2016,06,27,10,07,19.50
2016,06,27,10,08,19.50
2016,06,27,10,09,19.60
2016,06,27,10,10,19.70
2016,06,27,10,11,19.80
2016,06,27,10,12,19.90
2016,06,27,10,13,20.00
2016,06,27,10,14,20.20
2016,06,27,10,15,20.20
2016,06,27,10,16,20.30
2016,06,27,10,17,20.30
2016,06,27,10,18,20.30
2016,06,27,10,19,20.20
2016,06,27,10,20,20.20
2016,06,27,10,21,20.20
2016,06,27,10,22,20.10
2016,06,27,10,23,20.10
2016,06,27,10,24,20.20
2016,06,27,10,25,20.20
2016,06,27,10,26,20.20
2016,06,27,10,27,20.20
2016,06,27,10,28,20.20
2016,06,27,10,29,20.30
2016,06,27,10,30,20.40
2016,06,27,10,31,20.50
2016,06,27,10,32,20.50
2016,06,27,10,33,20.60
2016,06,27,10,34,20.70
2016,06,27,10,35,20.80
2016,06,27,10,36,20.80
2016,06,27,10,37,20.90
2016,06,27,10,38,20.90
2016,06,27,10,39,20.90
2016,06,27,10,40,20.90
2016,06,27,10,41,20.90
2016,06,27,10,42,20.90
2016,06,27,10,43,20.80
2016,06,27,10,44,20.70
2016,06,27,10,45,20.60
2016,06,27,10,46,20.60
2016,06,27,10,47,20.50
2016,06,27,10,48,20.50
2016,06,27,10,49,20.50
2016,06,27,10,50,20.50
2016,06,27,10,51,20.50
2016,06,27,10,52,20.60
2016,06,27,10,53,20.80
2016,06,27,10,54,20.90
2016,06,27,10,55,21.00
2016,06,27,10,56,21.20
2016,06,27,10,57,21.30
2016,06,27,10,58,21.30
2016,06,27,10,59,21.50
2016,06,27,11,00,21.60
2016,06,27,11,01,21.70
2016,06,27,11,02,21.80
2016,06,27,11,03,22.00
2016,06,27,11,04,22.10
2016,06,27,11,05,22.10
2016,06,27,11,06,22.10
2016,06,27,11,07,22.10
2016,06,27,11,08,22.10
2016,06,27,11,09,22.10
2016,06,27,11,10,22.00
2016,06,27,11,11,22.00
2016,06,27,11,12,21.90
2016,06,27,11,13,21.80
2016,06,27,11,14,21.70
2016,06,27,11,15,21.80
2016,06,27,11,16,21.90
2016,06,27,11,17,22.00
2016,06,27,11,18,22.10
2016,06,27,11,19,22.10
2016,06,27,11,20,22.00
2016,06,27,11,21,22.00
2016,06,27,11,22,21.90
2016,06,27,11,23,21.80
2016,06,27,11,24,21.80
2016,06,27,11,25,21.80
2016,06,27,11,26,21.90
2016,06,27,11,27,21.90
2016,06,27,11,28,21.90
2016,06,27,11,29,21.80
2016,06,27,11,30,21.70
2016,06,27,11,31,21.70
2016,06,27,11,32,21.70
2016,06,27,11,33,21.70
2016,06,27,11,34,21.70
2016,06,27,11,35,21.60
2016,06,27,11,36,21.60
2016,06,27,11,37,21.60
2016,06,27,11,38,21.60
2016,06,27,11,39,21.60
2016,06,27,11,40,21.70
2016,06,27,11,41,21.70
2016,06,27,11,42,21.80
2016,06,27,11,43,21.90
2016,06,27,11,44,21.90
2016,06,27,11,45,21.90
2016,06,27,11,46,21.90
2016,06,27,11,47,21.90
2016,06,27,11,48,22.00
2016,06,27,11,49,22.10
2016,06,27,11,50,22.10
2016,06,27,11,51,22.10
2016,06,27,11,52,22.10
2016,06,27,11,53,22.10
2016,06,27,11,54,22.20
2016,06,27,11,55,22.30
2016,06,27,11,56,22.40
2016,06,27,11,57,22.50
2016,06,27,11,58,22.50
2016,06,27,11,59,22.40
2016,06,27,12,00,22.40
2016,06,27,12,01,22.30
2016,06,27,12,02,22.20
2016,06,27,12,03,22.10
2016,06,27,12,04,22.10
2016,06,27,12,05,22.10
2016,06,27,12,06,22.10
2016,06,27,12,07,22.10
2016,06,27,12,08,22.00
2016,06,27,12,09,21.90
2016,06,27,12,10,21.90
2016,06,27,12,11,21.90
2016,06,27,12,12,21.80
2016,06,27,12,13,21.70
2016,06,27,12,14,21.80
2016,06,27,12,15,21.90
2016,06,27,12,16,22.00
2016,06,27,12,17,22.00
2016,06,27,12,18,22.10
2016,06,27,12,19,22.00
2016,06,27,12,20,22.00
2016,06,27,12,21,22.00
2016,06,27,12,22,22.00
2016,06,27,12,23,22.20
2016,06,27,12,24,22.30
2016,06,27,12,25,22.40
2016,06,27,12,26,22.40
2016,06,27,12,27,22.40
2016,06,27,12,28,22.40
2016,06,27,12,29,22.40
2016,06,27,12,30,22.40
2016,06,27,12,31,22.30
2016,06,27,12,32,22.20
2016,06,27,12,33,22.10
2016,06,27,12,34,22.00
2016,06,27,12,35,21.80
2016,06,27,12,36,21.80
2016,06,27,12,37,21.90
2016,06,27,12,38,22.00
2016,06,27,12,39,22.00
2016,06,27,12,40,22.00
2016,06,27,12,41,22.00
2016,06,27,12,42,22.00
2016,06,27,12,43,21.90
2016,06,27,12,44,21.80
2016,06,27,12,45,21.80
2016,06,27,12,46,21.70
2016,06,27,12,47,21.70
2016,06,27,12,48,21.70
2016,06,27,12,49,21.70
2016,06,27,12,50,21.60
2016,06,27,12,51,21.70
2016,06,27,12,52,21.70
2016,06,27,12,53,21.80
2016,06,27,12,54,21.90
2016,06,27,12,55,22.00
2016,06,27,12,56,22.00
2016,06,27,12,57,22.00
2016,06,27,12,58,22.10
2016,06,27,12,59,22.20
2016,06,27,13,00,22.20
2016,06,27,13,01,22.30
2016,06,27,13,02,22.30
2016,06,27,13,03,22.30
2016,06,27,13,04,22.40
2016,06,27,13,05,22.50
2016,06,27,13,06,22.50
2016,06,27,13,07,22.50
2016,06,27,13,08,22.50
2016,06,27,13,09,22.50
2016,06,27,13,10,22.50
2016,06,27,13,11,22.60
2016,06,27,13,12,22.60
2016,06,27,13,13,22.60
2016,06,27,13,14,22.70
2016,06,27,13,15,22.60
2016,06,27,13,16,22.70
2016,06,27,13,17,22.70
2016,06,27,13,18,22.70
2016,06,27,13,19,22.80
2016,06,27,13,20,22.80
2016,06,27,13,21,22.90
2016,06,27,13,22,22.90
2016,06,27,13,23,22.90
2016,06,27,13,24,22.80
2016,06,27,13,25,22.80
2016,06,27,13,26,22.70
2016,06,27,13,27,22.70
2016,06,27,13,28,22.70
2016,06,27,13,29,22.80
2016,06,27,13,30,22.90
2016,06,27,13,31,22.90
2016,06,27,13,32,22.90
2016,06,27,13,33,23.00
2016,06,27,13,34,23.10
2016,06,27,13,35,23.10
2016,06,27,13,36,23.10
2016,06,27,13,37,23.10
2016,06,27,13,38,23.10
2016,06,27,13,39,23.10
2016,06,27,13,40,23.20
2016,06,27,13,41,23.30
2016,06,27,13,42,23.30
2016,06,27,13,43,23.30
2016,06,27,13,44,23.30
2016,06,27,13,45,23.20
2016,06,27,13,46,23.00
2016,06,27,13,47,22.90
2016,06,27,13,48,22.70
2016,06,27,13,49,22.60
2016,06,27,13,50,22.40
2016,06,27,13,51,22.30
2016,06,27,13,52,22.20
2016,06,27,13,53,22.20
2016,06,27,13,54,22.10
2016,06,27,13,55,22.00
2016,06,27,13,56,22.00
2016,06,27,13,57,21.90
2016,06,27,13,58,21.80
2016,06,27,13,59,21.80
2016,06,27,14,00,21.80
2016,06,27,14,01,21.80
2016,06,27,14,02,21.80
2016,06,27,14,03,21.90
2016,06,27,14,04,21.90
2016,06,27,14,05,22.00
2016,06,27,14,06,22.00
2016,06,27,14,07,22.10
2016,06,27,14,08,22.10
2016,06,27,14,09,22.10
2016,06,27,14,10,22.10
2016,06,27,14,11,22.10
2016,06,27,14,12,22.00
2016,06,27,14,13,21.90
2016,06,27,14,14,21.80
2016,06,27,14,15,21.70
2016,06,27,14,16,21.70
2016,06,27,14,17,21.60
2016,06,27,14,18,21.60
2016,06,27,14,19,21.60
2016,06,27,14,20,21.60
2016,06,27,14,21,21.50
2016,06,27,14,22,21.40
2016,06,27,14,23,21.30
2016,06,27,14,24,21.30
2016,06,27,14,25,21.30
2016,06,27,14,26,21.30
2016,06,27,14,27,21.20
2016,06,27,14,28,21.00
2016,06,27,14,29,20.90
2016,06,27,14,30,20.80
2016,06,27,14,31,20.80
2016,06,27,14,32,20.80
2016,06,27,14,33,20.80
2016,06,27,14,34,20.80
2016,06,27,14,35,20.80
2016,06,27,14,36,20.90
2016,06,27,14,37,20.90
2016,06,27,14,38,20.90
2016,06,27,14,39,21.00
2016,06,27,14,40,21.00
2016,06,27,14,41,21.00
2016,06,27,14,42,21.10
2016,06,27,14,43,21.10
2016,06,27,14,44,21.10
2016,06,27,14,45,21.10
2016,06,27,14,46,21.20
2016,06,27,14,47,21.10
2016,06,27,14,48,21.10
2016,06,27,14,49,21.00
2016,06,27,14,50,21.00
2016,06,27,14,51,21.10
2016,06,27,14,52,21.20
2016,06,27,14,53,21.30
2016,06,27,14,54,21.30
2016,06,27,14,55,21.40
2016,06,27,14,56,21.40
2016,06,27,14,57,21.40
2016,06,27,14,58,21.60
2016,06,27,14,59,21.60
2016,06,27,15,00,21.60
2016,06,27,15,01,21.60
2016,06,27,15,02,21.70
2016,06,27,15,03,21.70
2016,06,27,15,04,21.70
2016,06,27,15,05,21.80
2016,06,27,15,06,21.90
2016,06,27,15,07,21.90
2016,06,27,15,08,21.90
2016,06,27,15,09,22.00
2016,06,27,15,10,22.00
2016,06,27,15,11,22.00
2016,06,27,15,12,22.00
2016,06,27,15,13,22.10
2016,06,27,15,14,22.20
2016,06,27,15,15,22.30
2016,06,27,15,16,22.30
2016,06,27,15,17,22.30
2016,06,27,15,18,22.30
2016,06,27,15,19,22.20
2016,06,27,15,20,22.20
2016,06,27,15,21,22.20
2016,06,27,15,22,22.10
2016,06,27,15,23,22.10
2016,06,27,15,24,22.10
2016,06,27,15,25,22.10
2016,06,27,15,26,22.10
2016,06,27,15,27,22.20
2016,06,27,15,28,22.20
2016,06,27,15,29,22.20
2016,06,27,15,30,22.30
2016,06,27,15,31,22.30
2016,06,27,15,32,22.30
2016,06,27,15,33,22.40
2016,06,27,15,34,22.50
2016,06,27,15,35,22.50
2016,06,27,15,36,22.60
2016,06,27,15,37,22.60
2016,06,27,15,38,22.60
2016,06,27,15,39,22.60
2016,06,27,15,40,22.60
2016,06,27,15,41,22.60
2016,06,27,15,42,22.60
2016,06,27,15,43,22.60
2016,06,27,15,44,22.60
2016,06,27,15,45,22.60
2016,06,27,15,46,22.60
2016,06,27,15,47,22.50
2016,06,27,15,48,22.40
2016,06,27,15,49,22.30
2016,06,27,15,50,22.20
2016,06,27,15,51,22.00
2016,06,27,15,52,21.90
2016,06,27,15,53,21.70
2016,06,27,15,54,21.60
2016,06,27,15,55,21.50
2016,06,27,15,56,21.40
2016,06,27,15,57,21.40
2016,06,27,15,58,21.40
2016,06,27,15,59,21.40
2016,06,27,16,00,21.30
2016,06,27,16,01,21.30
2016,06,27,16,02,21.30
2016,06,27,16,03,21.30
2016,06,27,16,04,21.30
2016,06,27,16,05,21.20
2016,06,27,16,06,21.00
2016,06,27,16,07,21.00
2016,06,27,16,08,20.90
2016,06,27,16,09,20.80
2016,06,27,16,10,20.80
2016,06,27,16,11,20.80
2016,06,27,16,12,20.80
2016,06,27,16,13,20.70
2016,06,27,16,14,20.60
2016,06,27,16,15,20.50
2016,06,27,16,16,20.50
2016,06,27,16,17,20.50
2016,06,27,16,18,20.50
2016,06,27,16,19,20.40
2016,06,27,16,20,20.30
2016,06,27,16,21,20.40
2016,06,27,16,22,20.50
2016,06,27,16,23,20.60
2016,06,27,16,24,20.70
2016,06,27,16,25,20.70
2016,06,27,16,26,20.80
2016,06,27,16,27,20.80
2016,06,27,16,28,20.90
2016,06,27,16,29,21.00
2016,06,27,16,30,21.00
2016,06,27,16,31,21.00
2016,06,27,16,32,21.00
2016,06,27,16,33,21.00
2016,06,27,16,34,21.00
2016,06,27,16,35,21.00
2016,06,27,16,36,20.90
2016,06,27,16,37,21.00
2016,06,27,16,38,21.00
2016,06,27,16,39,21.00
2016,06,27,16,40,21.00
2016,06,27,16,41,21.00
2016,06,27,16,42,21.10
2016,06,27,16,43,21.10
2016,06,27,16,44,21.00
2016,06,27,16,45,20.90
2016,06,27,16,46,21.00
2016,06,27,16,47,21.00
2016,06,27,16,48,21.10
2016,06,27,16,49,21.30
2016,06,27,16,50,21.30
2016,06,27,16,51,21.30
2016,06,27,16,52,21.20
2016,06,27,16,53,21.10
2016,06,27,16,54,21.00
2016,06,27,16,55,20.90
2016,06,27,16,56,20.90
2016,06,27,16,57,20.80
2016,06,27,16,58,20.70
2016,06,27,16,59,20.60
2016,06,27,17,00,20.50
2016,06,27,17,01,20.50
2016,06,27,17,02,20.50
2016,06,27,17,03,20.40
2016,06,27,17,04,20.30
2016,06,27,17,05,20.20
2016,06,27,17,06,20.20
2016,06,27,17,07,20.10
2016,06,27,17,08,20.00
2016,06,27,17,09,19.90
2016,06,27,17,10,19.90
2016,06,27,17,11,19.80
2016,06,27,17,12,19.70
2016,06,27,17,13,19.60
2016,06,27,17,14,19.50
2016,06,27,17,15,19.40
2016,06,27,17,16,19.40
2016,06,27,17,17,19.30
2016,06,27,17,18,19.10
2016,06,27,17,19,18.90